Regional Weather Roundup
Issued by NWS

Home | Current Version | Previous Version | Text Only | Print | Product List | Glossary On
Versions: 1 2 3 4 5 6 7 8 9 10 11 12 13 14 15 16 17 18 19 20 21 22 23 24 25 26 27 28 29 30 31 32 33 34 35 36 37 38 39 40 41 42 43 44 45 46 47 48 49 50
000
ASUS45 KREV 020010
RWRNV
NEVADA REGIONAL WEATHER ROUNDUP
NATIONAL WEATHER SERVICE RENO NV
500 PM PDT MON SEP 01 2014

NOTE: "FAIR" INDICATES FEW OR NO CLOUDS BELOW 12,000 FEET WITH NO
SIGNIFICANT WEATHER AND/OR OBSTRUCTIONS TO VISIBILITY.

NVZ001-003-004-020100-
WESTERN NEVADA

CITY           SKY/WX    TMP DP  RH WIND       PRES   REMARKS
RENO           SUNNY     89  33  13 NE6       29.96F
6HR MIN TEMP:  75; 6HR MAX TEMP:  90;

CARSON CITY    FAIR      90  28  11 E14       29.98F
MINDEN           N/A    N/A N/A N/A MISG        N/A
SLIDE MTN        N/A     64  37  36 E7          N/A
PYRAMID LAKE     N/A     77 N/A N/A N2          N/A
FALLON         SUNNY     89  30  12 NE5       29.94F
6HR MIN TEMP:  75; 6HR MAX TEMP:  90;

LOVELOCK       SUNNY     87  36  16 SE5       29.95F
6HR MIN TEMP:  77; 6HR MAX TEMP:  89;

HAWTHORNE      SUNNY     90  32  12 NW14      29.94F
$$

NVZ002-CAZ072-073-020100-
NORTHERN AND CENTRAL SIERRA

CITY           SKY/WX    TMP DP  RH WIND       PRES   REMARKS
S. LAKE TAHOE  SUNNY     83  34  17 NE8       30.09F
6HR MIN TEMP:  72; 6HR MAX TEMP:  85;

TRUCKEE        SUNNY     84  36  17 SW9       30.07S
                   6HR MAX TEMP:  86;

SQUAW VLY 8000 NOT AVBL
SUSANVILLE     SUNNY     86  30  13 CALM      29.97F
BLUE CANYON    SUNNY     80  35  19 SW8       30.08S
MAMMOTH LAKES  FAIR      86  25  10 SE9       30.13S
BRIDGEPORT     FAIR      86  30  13 MISG      30.08S
$$

NVZ030-031-036-020100-
NORTHERN NEVADA

CITY           SKY/WX    TMP DP  RH WIND       PRES   REMARKS
ELKO           SUNNY     82  26  13 SW8       30.03F
6HR MIN TEMP:  72; 6HR MAX TEMP:  84;

WINNEMUCCA     SUNNY     86  26  11 VRB6      30.00F
6HR MIN TEMP:  74; 6HR MAX TEMP:  86;

WENDOVER       SUNNY     81  36  19 SE7       30.03F
$$

NVZ035-037-020100-
CENTRAL NEVADA

CITY           SKY/WX    TMP DP  RH WIND       PRES   REMARKS
ELY            SUNNY     85  29  13 NW12      30.09S
6HR MIN TEMP:  74; 6HR MAX TEMP:  85;

EUREKA           N/A     86  30  13 N12       30.05F
6HR MIN TEMP:  74; 6HR MAX TEMP:  86;

$$

NVZ013-014-020100-
SOUTH CENTRAL NEVADA

CITY           SKY/WX    TMP DP  RH WIND       PRES   REMARKS
TONOPAH        SUNNY     90  26  10 VRB3      30.02F
6HR MIN TEMP:  81; 6HR MAX TEMP:  91;

$$

NVZ017-020-022-020100-
SOUTHERN NEVADA

CITY           SKY/WX    TMP DP  RH WIND       PRES   REMARKS
LAS VEGAS      SUNNY    104  38  10 E17       29.72F
6HR MIN TEMP:  94; 6HR MAX TEMP: 105;

N. LAS VEGAS   SUNNY    103  36  10 SE13      29.75F
6HR MIN TEMP:  91; 6HR MAX TEMP: 103;

NELLIS AFB     SUNNY    103  39  11 SE6       29.73F
6HR MIN TEMP:  94; 6HR MAX TEMP: 103;

HENDERSON      SUNNY    103  39  11 SE8G20    29.79S
6HR MIN TEMP:  97; 6HR MAX TEMP: 105;

MERCURY        SUNNY     98  25   7 SW13      29.84F
6HR MIN TEMP:  91; 6HR MAX TEMP:  99;

$$


USA.gov is the U.S. government's official web portal to all federal, state and local government web resources and services.